GW2412 Weather Reports


Display with metric or nautical units.
time (UTC)temp
F
wind
direction
speed
MPH
gust
MPH
rain 1hr
in
rain 24hr
in
rain mn
in
humidity
%
barometer
mb
20260902203517 77 146 13.0 23.0 0.00 0.00 0.00 1 1006.1
20260902203036 76 196 14.0 23.0 0.00 0.00 0.00 1 1006.0
20260902202517 76 171 18.0 24.0 0.00 0.00 0.00 1 1006.1
20260902202017 76 179 12.0 22.0 0.00 0.00 0.00 1 1006.2
20260902201551 76 184 11.0 20.0 0.00 0.00 0.00 1 1006.2
20260902201017 76 186 16.0 20.0 0.00 0.00 0.00 1 1006.4
20260902200518 76 166 15.0 22.0 0.00 0.00 0.00 1 1006.1
20260902200036 76 140 13.0 19.0 0.00 0.00 0.00 1 1006.2
20260902195518 74 155 9.0 15.0 0.00 0.00 0.00 1 1006.6
20260902195016 74 167 9.0 16.0 0.00 0.00 0.00 1 1006.7
20260902194546 75 190 12.0 16.0 0.00 0.00 0.00 1 1006.5
20260902194016 74 157 11.0 15.0 0.00 0.00 0.00 1 1006.6
20260902193517 73 185 8.0 14.0 0.00 0.00 0.00 1 1006.7
20260902193033 73 185 11.0 14.0 0.00 0.00 0.00 1 1006.7
20260902192517 73 159 8.0 16.0 0.00 0.00 0.00 1 1006.8
20260902192020 73 173 13.0 16.0 0.00 0.00 0.00 1 1006.7
20260902191535 73 182 9.0 13.0 0.00 0.00 0.00 1 1006.9
20260902191018 72 194 6.0 14.0 0.00 0.00 0.00 1 1007.2
20260902190516 72 188 10.0 15.0 0.00 0.00 0.00 1 1007.1
20260902190037 72 200 11.0 15.0 0.00 0.00 0.00 1 1007.1
20260902185516 72 194 8.0 13.0 0.00 0.00 0.00 1 1007.3
20260902185019 72 190 10.0 16.0 0.00 0.00 0.00 1 1007.4
20260902184536 72 181 12.0 18.0 0.00 0.00 0.00 1 1007.2
20260902184018 72 179 11.0 19.0 0.00 0.00 0.00 1 1007.3
20260902183516 72 197 14.0 19.0 0.00 0.00 0.00 1 1007.4
20260902183040 72 153 11.0 17.0 0.00 0.00 0.00 1 1007.7
20260902182517 71 173 13.0 19.0 0.00 0.00 0.00 1 1007.6
20260902182018 71 167 10.0 17.0 0.00 0.00 0.00 1 1007.8
20260902181539 72 176 14.0 20.0 0.00 0.00 0.00 1 1007.7
20260902181016 71 176 12.0 19.0 0.00 0.00 0.00 1 1007.9
20260902180521 71 153 10.0 16.0 0.00 0.00 0.00 1 1007.8
20260902180040 70 185 10.0 16.0 0.00 0.00 0.00 1 1007.8
20260902175518 70 186 13.0 17.0 0.00 0.00 0.00 1 1007.9
20260902175017 70 190 13.0 17.0 0.00 0.00 0.00 1 1007.9
20260902174546 70 194 10.0 16.0 0.00 0.00 0.00 1 1008.0
20260902174017 70 182 10.0 17.0 0.00 0.00 0.00 1 1007.9
20260902173520 70 179 13.0 17.0 0.00 0.00 0.00 1 1008.0
20260902173041 70 199 12.0 16.0 0.00 0.00 0.00 1 1007.8
20260902172522 70 194 8.0 16.0 0.00 0.00 0.00 1 1007.8
20260902172018 70 185 11.0 16.0 0.00 0.00 0.00 1 1007.9
20260902171541 70 159 12.0 15.0 0.00 0.00 0.00 1 1007.8
20260902171016 70 196 9.0 13.0 0.00 0.00 0.00 1 1007.8
20260902170521 70 203 9.0 12.0 0.00 0.00 0.00 1 1007.8
20260902170042 70 181 7.0 12.0 0.00 0.00 0.00 1 1007.8
20260902165520 70 171 7.0 10.0 0.00 0.00 0.00 1 1007.5
20260902165019 70 150 5.0 9.0 0.00 0.00 0.00 1 1007.6
20260902164548 70 148 2.0 7.0 0.00 0.00 0.00 1 1007.6
20260902164018 69 169 2.0 7.0 0.00 0.00 0.00 1 1007.6
20260902163517 68 169 3.0 7.0 0.00 0.00 0.00 1 1007.7
20260902163042 68 167 2.0 7.0 0.00 0.00 0.00 1 1007.7
20260902162521 68 244 3.0 10.0 0.00 0.00 0.00 1 1007.7
20260902162021 68 205 6.0 10.0 0.00 0.00 0.00 1 1007.9
20260902161540 68 182 4.0 8.0 0.00 0.00 0.00 1 1007.9
20260902161020 67 229 5.0 10.0 0.00 0.00 0.00 1 1007.9
20260902160521 66 227 6.0 11.0 0.00 0.00 0.00 1 1007.8
20260902160045 66 222 5.0 11.0 0.00 0.00 0.00 1 1007.8
20260902155521 66 229 5.0 8.0 0.00 0.00 0.00 1 1007.9
20260902155018 66 216 5.0 9.0 0.00 0.00 0.00 1 1008.0
20260902154533 66 261 4.0 6.0 0.00 0.00 0.00 1 1008.1
20260902154016 65 261 2.0 6.0 0.00 0.00 0.00 1 1008.1
20260902153518 65 261 2.0 6.0 0.00 0.00 0.00 1 1008.0
20260902153041 65 261 2.0 6.0 0.00 0.00 0.00 1 1008.1
20260902152516 64 261 3.0 6.0 0.00 0.00 0.00 1 1008.1
20260902152015 64 261 2.0 4.0 0.00 0.00 0.00 1 1008.2
20260902151536 64 261 1.0 7.0 0.00 0.00 0.00 1 1008.3
20260902151018 64 261 2.0 7.0 0.00 0.00 0.00 1 1008.1
20260902150518 64 261 2.0 6.0 0.00 0.00 0.00 1 1008.2
20260902150036 64 261 2.0 6.0 0.00 0.00 0.00 1 1008.2
20260902145518 64 261 2.0 6.0 0.00 0.00 0.00 1 1008.2
20260902145017 64 261 3.0 6.0 0.00 0.00 0.00 1 1008.2
20260902144548 63 261 2.0 4.0 0.00 0.00 0.00 1 1008.3
20260902144018 63 261 1.0 4.0 0.00 0.00 0.00 1 1008.5
20260902143518 63 261 3.0 4.0 0.00 0.00 0.00 1 1008.5
20260902143042 63 261 2.0 6.0 0.00 0.00 0.00 1 1008.5
20260902142518 63 261 3.0 8.0 0.00 0.00 0.00 1 1008.6
20260902142018 63 261 5.0 9.0 0.00 0.00 0.00 1 1008.4
20260902141541 62 253 6.0 9.0 0.00 0.00 0.00 1 1008.6
20260902141018 61 249 5.0 9.0 0.00 0.00 0.00 1 1008.7
20260902140517 61 245 6.0 9.0 0.00 0.00 0.00 1 1008.7
20260902140037 60 282 6.0 9.0 0.00 0.00 0.00 1 1008.6
20260902135518 60 279 7.0 9.0 0.00 0.00 0.00 1 1008.6
20260902135016 59 269 7.0 10.0 0.00 0.00 0.00 1 1008.6
20260902134539 59 254 8.0 10.0 0.00 0.00 0.00 1 1008.5
20260902134017 58 250 7.0 9.0 0.00 0.00 0.00 1 1008.4
20260902133524 57 220 5.0 7.0 0.00 0.00 0.00 1 1008.3
20260902133053 56 220 4.0 6.0 0.00 0.00 0.00 1 1008.3
20260902132518 56 220 4.0 8.0 0.00 0.00 0.00 1 1008.1
20260902132019 56 220 5.0 8.0 0.00 0.00 0.00 1 1008.3
20260902131546 56 218 6.0 10.0 0.00 0.00 0.00 1 1008.1
20260902131019 56 200 4.0 8.0 0.00 0.00 0.00 1 1008.1
20260902130519 57 337 2.0 4.0 0.00 0.00 0.00 1 1008.0
20260902130033 57 337 2.0 5.0 0.00 0.00 0.00 1 1007.9
20260902125517 56 337 2.0 8.0 0.00 0.00 0.00 1 1007.6
20260902125017 56 337 5.0 8.0 0.00 0.00 0.00 1 1007.5
20260902124539 55 337 4.0 6.0 0.00 0.00 0.00 1 1007.7
20260902124018 54 337 5.0 8.0 0.00 0.00 0.00 1 1007.7
20260902123517 53 337 5.0 8.0 0.00 0.00 0.00 1 1007.6
20260902123037 53 337 5.0 8.0 0.00 0.00 0.00 1 1007.7
20260902122520 53 337 5.0 8.0 0.00 0.00 0.00 1 1007.8
20260902122015 52 337 5.0 8.0 0.00 0.00 0.00 1 1007.9
20260902121542 52 337 6.0 9.0 0.00 0.00 0.00 1 1008.1
20260902121019 52 337 7.0 10.0 0.00 0.00 0.00 1 1008.1
20260902120519 51 337 7.0 10.0 0.00 0.00 0.00 1 1008.1
20260902120038 51 343 6.0 9.0 0.00 0.00 0.00 1 1008.3
20260902115521 51 342 7.0 9.0 0.00 0.00 0.00 1 1008.4
20260902115016 51 319 4.0 6.0 0.00 0.00 0.00 1 1008.7
20260902114545 51 321 4.0 5.0 0.00 0.00 0.00 1 1008.8
20260902114018 51 303 4.0 5.0 0.00 0.00 0.00 1 1009.1
20260902113516 50 302 3.0 5.0 0.00 0.00 0.00 1 1009.2
20260902113050 50 83 2.0 4.0 0.00 0.00 0.00 1 1009.2
20260902112516 50 83 3.0 4.0 0.00 0.00 0.00 1 1009.5
20260902112016 51 83 1.0 3.0 0.00 0.00 0.00 1 1009.4
20260902111547 52 83 2.0 3.0 0.00 0.00 0.00 1 1009.1
20260902111021 52 83 1.0 4.0 0.00 0.00 0.00 1 1009.2
20260902110519 53 83 1.0 4.0 0.00 0.00 0.00 1 1009.2
20260902110040 53 83 0.0 0.0 0.00 0.00 0.00 1 1009.0
20260902105517 53 83 0.0 1.0 0.00 0.00 0.00 1 1008.9
20260902105021 53 83 0.0 3.0 0.00 0.00 0.00 1 1008.7
20260902104600 53 83 1.0 3.0 0.00 0.00 0.00 1 1008.7
20260902104017 53 83 0.0 6.0 0.00 0.00 0.00 1 1008.6
20260902103519 53 83 3.0 6.0 0.00 0.00 0.00 1 1008.5
20260902103040 53 83 4.0 9.0 0.00 0.00 0.00 1 1008.4
20260902102517 52 102 6.0 9.0 0.00 0.00 0.00 1 1008.6
20260902102019 52 77 0.0 2.0 0.00 0.00 0.00 1 1008.6
20260902101550 53 77 0.0 2.0 0.00 0.00 0.00 1 1008.3
20260902101021 52 77 0.0 5.0 0.00 0.00 0.00 1 1008.2
20260902100518 52 77 2.0 5.0 0.00 0.00 0.00 1 1008.1
20260902100039 52 77 3.0 4.0 0.00 0.00 0.00 1 1008.1
20260902095516 52 77 1.0 3.0 0.00 0.00 0.00 1 1008.3
20260902095016 52 77 0.0 3.0 0.00 0.00 0.00 1 1008.4
20260902094540 52 77 1.0 3.0 0.00 0.00 0.00 1 1008.3
20260902094020 52 77 0.0 3.0 0.00 0.00 0.00 1 1008.4
20260902093519 52 77 0.0 3.0 0.00 0.00 0.00 1 1008.5
20260902093046 52 77 1.0 3.0 0.00 0.00 0.00 1 1008.7
20260902092518 52 77 0.0 1.0 0.00 0.00 0.00 1 1008.6
20260902092018 53 77 0.0 4.0 0.00 0.00 0.00 1 1008.6
20260902091541 53 77 1.0 4.0 0.00 0.00 0.00 1 1008.7
20260902091016 53 77 0.0 4.0 0.00 0.00 0.00 1 1008.9
20260902090519 54 77 2.0 4.0 0.00 0.00 0.00 1 1009.0
20260902090040 54 77 1.0 3.0 0.00 0.00 0.00 1 1009.2
20260902085515 54 77 0.0 3.0 0.00 0.00 0.00 1 1009.3
20260902085017 55 77 1.0 5.0 0.00 0.00 0.00 1 1009.5
20260902084541 56 77 2.0 5.0 0.00 0.00 0.00 1 1009.5
20260902084019 57 77 0.0 4.0 0.00 0.00 0.00 1 1009.5
20260902083520 58 77 0.0 4.0 0.00 0.00 0.00 1 1009.4
20260902083059 58 77 2.0 5.0 0.00 0.00 0.00 1 1009.5
20260902082518 58 77 2.0 5.0 0.00 0.00 0.00 1 1009.5
20260902082016 57 77 0.0 3.0 0.00 0.00 0.00 1 1009.5
20260902081544 58 77 0.0 4.0 0.00 0.00 0.00 1 1009.6
20260902081017 58 77 2.0 4.0 0.00 0.00 0.00 1 1009.5
20260902080516 58 77 1.0 4.0 0.00 0.00 0.00 1 1009.6
20260902080042 58 77 2.0 6.0 0.00 0.00 0.00 1 1009.6
20260902075517 58 77 3.0 6.0 0.00 0.00 0.00 1 1009.7
20260902075019 58 77 4.0 6.0 0.00 0.00 0.00 1 1009.6
20260902074546 58 77 3.0 6.0 0.00 0.00 0.00 1 1009.6
20260902074018 58 52 4.0 6.0 0.00 0.00 0.00 1 1009.5
20260902073518 57 49 4.0 8.0 0.00 0.00 0.00 1 1009.5
20260902073043 57 42 4.0 8.0 0.00 0.00 0.00 1 1009.4
20260902072519 58 44 3.0 6.0 0.00 0.00 0.00 1 1009.6
20260902072018 59 104 2.0 4.0 0.00 0.00 0.00 1 1009.5
20260902071539 60 104 2.0 4.0 0.00 0.00 0.00 1 1009.6
20260902071016 61 104 1.0 3.0 0.00 0.00 0.00 1 1009.8
20260902070517 62 104 1.0 6.0 0.00 0.00 0.00 1 1009.9
20260902070044 63 104 2.0 9.0 0.00 0.00 0.00 1 1009.8
20260902065527 63 98 5.0 9.0 0.00 0.00 0.00 1 1009.7
20260902065022 63 89 3.0 7.0 0.00 0.00 0.00 1 1009.7
20260902064549 63 76 4.0 10.0 0.00 0.00 0.00 1 1009.8
20260902064019 64 94 6.0 10.0 0.00 0.00 0.00 1 1009.8
20260902063519 64 103 6.0 10.0 0.00 0.00 0.00 1 1009.9
20260902063044 64 108 6.0 10.0 0.00 0.00 0.00 1 1009.8
20260902062518 64 97 7.0 9.0 0.00 0.00 0.00 1 1010.0
20260902062016 64 96 7.0 10.0 0.00 0.00 0.00 1 1009.9
20260902061548 64 113 6.0 10.0 0.00 0.00 0.00 1 1010.1
20260902061018 64 103 6.0 9.0 0.00 0.00 0.00 1 1010.1
20260902060521 65 97 6.0 10.0 0.00 0.00 0.00 1 1010.1
20260902060039 65 107 7.0 10.0 0.00 0.00 0.00 1 1010.0
20260902055518 65 91 6.0 9.0 0.00 0.00 0.00 1 1010.1
20260902055219 65 100 8.0 12.0 0.00 0.00 0.00 1 1010.0
20260902054023 65 105 9.0 13.0 0.00 0.00 0.00 1 1010.1
20260902053523 64 90 8.0 12.0 0.00 0.00 0.00 1 1010.4
20260902053033 64 100 7.0 10.0 0.00 0.00 0.00 1 1010.3
20260902052517 64 75 6.0 9.0 0.00 0.00 0.00 1 1010.3
20260902052017 63 92 5.0 8.0 0.00 0.00 0.00 1 1010.2
20260902051535 64 84 5.0 8.0 0.00 0.00 0.00 1 1010.3
20260902051016 64 69 5.0 9.0 0.00 0.00 0.00 1 1010.2
20260902050522 66 86 6.0 10.0 0.00 0.00 0.00 1 1010.2
20260902050032 66 98 6.0 12.0 0.00 0.00 0.00 1 1010.3
20260902045516 66 95 8.0 12.0 0.00 0.00 0.00 1 1010.1
20260902045022 66 88 5.0 9.0 0.00 0.00 0.00 1 1010.2
20260902044541 66 93 5.0 8.0 0.00 0.00 0.00 1 1010.2
20260902044020 66 91 6.0 9.0 0.00 0.00 0.00 1 1010.2
20260902043516 66 107 6.0 8.0 0.00 0.00 0.00 1 1010.2
20260902043042 66 110 5.0 8.0 0.00 0.00 0.00 1 1010.3
20260902042519 66 116 4.0 9.0 0.00 0.00 0.00 1 1010.3
20260902042021 65 111 6.0 9.0 0.00 0.00 0.00 1 1010.3
20260902041535 65 102 5.0 9.0 0.00 0.00 0.00 1 1010.4
20260902041021 65 94 5.0 7.0 0.00 0.00 0.00 1 1010.3
20260902040521 64 82 4.0 8.0 0.00 0.00 0.00 1 1010.4
20260902040036 64 87 5.0 8.0 0.00 0.00 0.00 1 1010.4
20260902035517 63 69 3.0 4.0 0.00 0.00 0.00 1 1010.4
20260902035016 63 76 2.0 6.0 0.00 0.00 0.00 1 1010.5
20260902034534 63 92 2.0 6.0 0.00 0.00 0.00 1 1010.5
20260902034018 64 92 2.0 6.0 0.00 0.00 0.00 1 1010.6
20260902033515 64 92 4.0 7.0 0.00 0.00 0.00 1 1010.6
20260902033041 63 69 3.0 7.0 0.00 0.00 0.00 1 1010.6
20260902032518 62 82 3.0 8.0 0.00 0.00 0.00 1 1010.4
20260902032021 61 62 3.0 5.0 0.00 0.00 0.00 1 1010.4
20260902031539 61 46 1.0 4.0 0.00 0.00 0.00 1 1010.4
20260902031022 60 38 2.0 4.0 0.00 0.00 0.00 1 1010.5
20260902030521 60 126 1.0 3.0 0.00 0.00 0.00 1 1010.5
20260902030034 61 126 0.0 4.0 0.00 0.00 0.00 1 1010.4
20260902025519 62 126 2.0 4.0 0.00 0.00 0.00 1 1010.5
20260902025016 63 126 2.0 4.0 0.00 0.00 0.00 1 1010.2
20260902024535 64 126 1.0 4.0 0.00 0.00 0.00 1 1010.2
20260902024015 65 126 2.0 3.0 0.00 0.00 0.00 1 1010.2
20260902023517 66 126 0.0 2.0 0.00 0.00 0.00 1 1010.2
20260902023037 66 126 0.0 2.0 0.00 0.00 0.00 1 1010.1
20260902022518 66 126 0.0 2.0 0.00 0.00 0.00 1 1010.1
20260902022020 67 126 0.0 2.0 0.00 0.00 0.00 1 1010.2
20260902021534 68 126 1.0 3.0 0.00 0.00 0.00 1 1010.3
20260902021017 68 126 2.0 3.0 0.00 0.00 0.00 1 1010.2
20260902020518 69 126 2.0 3.0 0.00 0.00 0.00 1 1010.4
20260902020035 69 126 1.0 3.0 0.00 0.00 0.00 1 1010.3
20260902015516 70 126 1.0 3.0 0.00 0.00 0.00 1 1010.3
20260902015016 70 126 2.0 3.0 0.00 0.00 0.00 1 1010.3
20260902014534 71 126 2.0 4.0 0.00 0.00 0.00 1 1010.6
20260902014016 72 126 2.0 6.0 0.00 0.00 0.00 1 1010.4
20260902013522 74 126 3.0 7.0 0.00 0.00 0.00 1 1010.4
20260902013035 75 126 4.0 9.0 0.00 0.00 0.00 1 1010.4
20260902012519 76 126 5.0 9.0 0.00 0.00 0.00 1 1010.4
20260902012018 76 128 7.0 10.0 0.00 0.00 0.00 1 1010.4
20260902011549 77 136 8.0 10.0 0.00 0.00 0.00 1 1010.4
20260902011018 77 120 8.0 10.0 0.00 0.00 0.00 1 1010.5
20260902010518 78 136 7.0 12.0 0.00 0.00 0.00 1 1010.5
20260902010034 78 132 8.0 12.0 0.00 0.00 0.00 1 1010.4
20260902005519 78 137 8.0 11.0 0.00 0.00 0.00 1 1010.6
20260902005016 78 139 7.0 10.0 0.00 0.00 0.00 1 1010.4
20260902004536 79 146 7.0 9.0 0.00 0.00 0.00 1 1010.4
20260902004018 79 163 6.0 12.0 0.00 0.00 0.00 1 1010.3
20260902003515 78 155 9.0 12.0 0.00 0.00 0.00 1 1010.3
20260902003038 78 132 7.0 10.0 0.00 0.00 0.00 1 1010.4
20260902002520 79 129 7.0 10.0 0.00 0.00 0.00 1 1010.4
20260902002016 78 131 5.0 11.0 0.00 0.00 0.00 1 1010.4
20260902001536 78 131 7.0 13.0 0.00 0.00 0.00 1 1010.3
20260902001015 79 138 8.0 16.0 0.00 0.00 0.00 1 1010.5
20260902000516 79 126 11.0 16.0 0.00 0.00 0.00 1 1010.5
20260902000039 79 171 5.0 13.0 0.00 0.00 0.00 1 1010.6
20260901235519 79 126 9.0 15.0 0.00 0.00 0.00 1 1010.6
20260901235019 79 152 9.0 15.0 0.00 0.00 0.00 1 1010.6
20260901234545 79 159 7.0 15.0 0.00 0.00 0.00 1 1010.8
20260901234019 79 144 11.0 15.0 0.00 0.00 0.00 1 1010.7
20260901233523 79 159 9.0 17.0 0.00 0.00 0.00 1 1010.9
20260901233038 79 144 11.0 17.0 0.00 0.00 0.00 1 1010.9
20260901232517 79 142 8.0 16.0 0.00 0.00 0.00 1 1010.9
20260901232017 79 125 9.0 15.0 0.00 0.00 0.00 1 1010.8
20260901231541 79 143 4.0 11.0 0.00 0.00 0.00 1 1010.9
20260901231018 79 138 6.0 11.0 0.00 0.00 0.00 1 1011.0
20260901230518 79 134 7.0 16.0 0.00 0.00 0.00 1 1011.1
20260901230035 80 157 11.0 16.0 0.00 0.00 0.00 1 1010.8
20260901225516 79 111 5.0 17.0 0.00 0.00 0.00 1 1011.0
20260901225017 79 144 7.0 17.0 0.00 0.00 0.00 1 1010.8
20260901224533 79 112 8.0 14.0 0.00 0.00 0.00 1 1011.1
20260901224021 79 137 9.0 14.0 0.00 0.00 0.00 1 1011.3
20260901223519 79 131 7.0 12.0 0.00 0.00 0.00 1 1011.2
20260901223034 79 144 3.0 14.0 0.00 0.00 0.00 1 1011.4
20260901222517 79 144 10.0 14.0 0.00 0.00 0.00 1 1011.4
20260901222016 79 182 8.0 13.0 0.00 0.00 0.00 1 1011.4
20260901221603 79 138 5.0 18.0 0.00 0.00 0.00 1 1011.5
20260901221016 80 109 9.0 18.0 0.00 0.00 0.00 1 1011.7
20260901220518 79 179 8.0 14.0 0.00 0.00 0.00 1 1011.7
20260901220048 79 157 8.0 16.0 0.00 0.00 0.00 1 1011.7
20260901215515 79 57 8.0 14.0 0.00 0.00 0.00 1 1011.8
20260901215016 79 167 4.0 16.0 0.00 0.00 0.00 1 1011.8
20260901214534 79 173 12.0 16.0 0.00 0.00 0.00 1 1012.0
20260901214019 79 132 10.0 19.0 0.00 0.00 0.00 1 1012.0
20260901213518 79 187 8.0 19.0 0.00 0.00 0.00 1 1012.0
20260901213057 79 160 11.0 16.0 0.00 0.00 0.00 1 1012.0
20260901212516 79 144 6.0 11.0 0.00 0.00 0.00 1 1012.1
20260901212017 78 177 8.0 12.0 0.00 0.00 0.00 1 1012.1
20260901211536 78 162 5.0 14.0 0.00 0.00 0.00 1 1012.3
20260901211018 79 145 9.0 17.0 0.00 0.00 0.00 1 1012.2
20260901210517 79 175 13.0 17.0 0.00 0.00 0.00 1 1012.1
20260901210035 78 124 10.0 13.0 0.00 0.00 0.00 1 1012.2
20260901205517 78 142 8.0 16.0 0.00 0.00 0.00 1 1012.4
20260901205021 78 142 9.0 15.0 0.00 0.00 0.00 1 1012.5
20260901204535 77 132 8.0 18.0 0.00 0.00 0.00 1 1012.4
20260901204018 77 135 7.0 16.0 0.00 0.00 0.00 1 1012.5